STARLINK-36159, 67079

Orbit data source: Space-Track

STARLINK-36159, 67079 is a payload satellite owned by SpaceX/Seattle (US) in LEO that was launched on Sun, 14 Dec 2025 UTC via an FALCON 9 launch vehicle from the Air Force Western Test Range (AFWTR). Payload-class satellites include a variety of spacecraft equipped with specific instruments for various scientific and technological missions. These include communications satellites like Starlink; space stations such as the ISS; scientific satellites like the Hubble; Earth observation satellites from companies like Planet Labs, Umbra, and HawkEye 360; GPS; miniature CubeSats for education and research; and military/defense satellites.

Loading next visibility...
Identifier
67079, 2025-298E
Orbit
LEO
Country
Flag of USUS
Related business
Manufacturer
SpaceX/Seattle
Mission
Operational Commercial Communications
Bus & Motor
STARLINK V2MO, Unknown motor
Mass
575 kg wet, ~530 kg dry
Launch date (UTC)
2025-12-14 (6 months ago)
Launch vehicle
FALCON 9
Launch site
Air Force Western Test Range (AFWTR)
Object type
Payload
Rocket body
Debris
Shape & HBR
Box + 2 Pan, 17.7 m
Radar Cross Section
36.964 m², Large (>1 m²)

Expand to show TLE details & history
Last TLE update: 16 hours ago

TLE from 16 hours ago
0 STARLINK-36159
1 67079U 25298E   26171.18325225  .00005043  00000-0  42999-3 0  9998
2 67079  70.0025 115.8974 0002520 267.4881  92.5989 14.98340268 28574
Epoch: 2026-06-20T04:23Z
TLE epoch observation values (Epoch: 2026-06-20T04:23:52.994Z)
Latitude
-0.00008°
Longitude
141.52503°
Altitude
574.528 km
Speed
7.574 km/s
True Right ascension
07h 43m 35s
True Declination
0° 00' 00"
Sunlit
Object was in daylight at epoch
Visualization orbit readout
Latitude
Unknown
Longitude
Unknown
Altitude
Unknown
Speed
Unknown
Apparent Right ascension
Unknown
Apparent Declination
Unknown
Sunlit
N/A
Visualization observer readout
Local Sidereal Time
07:20:54
Azimuth
Unknown
Elevation
Unknown
Doppler factor
Unknown
Orbital elements
Apogee altitude
571.723 km
Perigee altitude
568.221 km
Semi-major axis
6,948.109 km
Eccentricity
0.00025
Inclination
70.0025°
RAAN
115.8974°
Arg. of periapsis
267.4881°
True anomaly
92.62775°
Mean anomaly
92.5989°
Eccentric anomaly
92.61332°
Mean motion
3.74751 °/min
Orbital period
96.06 mins
BSTAR
0.00042999
Loading maneuver chart data...
Computing Atmospheric mass density...
Loading historical data...
Loading historical data...
Loading historical data...
Loading historical data...
Loading historical data...
Loading historical data...
Loading historical data...

Documentation

Showing up to 5 results
|